TimeEDT,TemperatureF,Dew PointF,Humidity,Sea Level PressureIn,VisibilityMPH,Wind Direction,Wind SpeedMPH,Gust SpeedMPH,PrecipitationIn,Events,Conditions,WindDirDegrees,DateUTC
12:14 AM,60.8,57.2,88,29.89,10.0,North,3.5,-,N/A,,Overcast,350,2012-10-03 04:14:00
12:35 AM,60.8,57.2,88,29.89,10.0,Calm,Calm,-,N/A,,Overcast,0,2012-10-03 04:35:00
12:54 AM,60.8,57.2,88,29.89,10.0,Calm,Calm,-,N/A,,Overcast,0,2012-10-03 04:54:00
1:14 AM,60.8,57.2,88,29.89,7.0,North,4.6,-,N/A,,Overcast,350,2012-10-03 05:14:00
1:34 AM,60.8,57.2,88,29.88,10.0,North,5.8,-,N/A,,Overcast,350,2012-10-03 05:34:00
1:54 AM,60.8,57.2,88,29.88,10.0,NNW,3.5,-,N/A,,Overcast,330,2012-10-03 05:54:00
2:14 AM,60.8,57.2,88,29.89,10.0,Calm,Calm,-,N/A,,Overcast,0,2012-10-03 06:14:00
2:34 AM,60.8,57.2,88,29.90,10.0,Calm,Calm,-,N/A,,Overcast,0,2012-10-03 06:34:00
2:54 AM,60.8,57.2,88,29.90,10.0,Calm,Calm,-,N/A,,Overcast,0,2012-10-03 06:54:00
3:14 AM,62.6,59.0,88,29.90,2.5,Calm,Calm,-,0.11,Rain,Heavy Rain,0,2012-10-03 07:14:00
3:34 AM,60.8,59.0,94,29.90,5.0,NNW,3.5,-,0.12,,Overcast,340,2012-10-03 07:34:00
3:54 AM,62.6,59.0,88,29.90,5.0,Calm,Calm,-,0.12,,Overcast,0,2012-10-03 07:54:00
4:14 AM,60.8,59.0,94,29.90,7.0,Calm,Calm,-,N/A,,Overcast,0,2012-10-03 08:14:00
4:34 AM,62.6,59.0,88,29.91,5.0,Calm,Calm,-,N/A,,Overcast,0,2012-10-03 08:34:00
4:54 AM,62.6,60.8,94,29.92,4.0,Calm,Calm,-,N/A,,Overcast,0,2012-10-03 08:54:00
5:14 AM,62.6,60.8,94,29.92,1.8,Calm,Calm,-,N/A,,Overcast,0,2012-10-03 09:14:00
5:34 AM,62.6,60.8,94,29.92,1.5,Calm,Calm,-,N/A,,Overcast,0,2012-10-03 09:34:00
5:55 AM,62.6,60.8,94,29.93,1.0,Calm,Calm,-,N/A,,Overcast,0,2012-10-03 09:55:00
6:14 AM,62.6,60.8,94,29.94,1.2,Calm,Calm,-,N/A,,Overcast,0,2012-10-03 10:14:00
6:34 AM,62.6,60.8,94,29.94,1.0,Calm,Calm,-,N/A,,Overcast,0,2012-10-03 10:34:00
6:55 AM,60.8,60.8,100,29.95,1.2,WSW,3.5,-,N/A,,Overcast,250,2012-10-03 10:55:00
7:14 AM,60.8,59.0,94,29.96,1.0,Calm,Calm,-,N/A,,Overcast,0,2012-10-03 11:14:00
7:34 AM,60.8,59.0,94,29.96,0.5,WSW,4.6,-,N/A,Fog,Fog,240,2012-10-03 11:34:00
7:55 AM,60.8,59.0,94,29.97,0.8,Calm,Calm,-,N/A,,Overcast,0,2012-10-03 11:55:00
8:14 AM,60.8,59.0,94,29.97,1.0,Calm,Calm,-,N/A,,Overcast,0,2012-10-03 12:14:00
8:34 AM,60.8,59.0,94,29.97,1.2,Calm,Calm,-,N/A,,Overcast,0,2012-10-03 12:34:00
8:54 AM,60.8,60.8,100,29.98,1.5,Calm,Calm,-,N/A,,Overcast,0,2012-10-03 12:54:00
9:14 AM,60.8,60.8,100,29.98,1.5,Calm,Calm,-,N/A,,Overcast,0,2012-10-03 13:14:00
9:34 AM,62.6,60.8,94,30.00,1.8,Calm,Calm,-,N/A,,Overcast,0,2012-10-03 13:34:00
9:54 AM,62.6,60.8,94,30.00,1.5,South,3.5,-,N/A,,Overcast,180,2012-10-03 13:54:00
10:14 AM,62.6,60.8,94,30.00,1.8,South,4.6,-,N/A,,Overcast,170,2012-10-03 14:14:00
10:34 AM,62.6,60.8,94,30.00,1.8,SSE,4.6,-,N/A,,Overcast,160,2012-10-03 14:34:00
10:54 AM,64.4,62.6,94,30.00,2.0,South,6.9,-,N/A,,Overcast,180,2012-10-03 14:54:00
11:14 AM,64.4,62.6,94,30.01,2.0,South,6.9,-,N/A,,Overcast,180,2012-10-03 15:14:00
11:35 AM,66.2,62.6,88,30.00,4.0,SSW,4.6,-,N/A,,Overcast,210,2012-10-03 15:35:00
11:54 AM,66.2,60.8,83,30.00,10.0,SW,4.6,-,N/A,,Overcast,230,2012-10-03 15:54:00
12:14 PM,66.2,60.8,83,30.01,10.0,SSW,10.4,-,N/A,,Mostly Cloudy,210,2012-10-03 16:14:00
12:35 PM,66.2,60.8,83,30.01,10.0,South,9.2,-,N/A,,Overcast,190,2012-10-03 16:35:00
12:54 PM,69.8,60.8,73,30.00,10.0,South,11.5,-,N/A,,Mostly Cloudy,180,2012-10-03 16:54:00
1:14 PM,68.0,60.8,78,30.01,10.0,SSW,9.2,-,N/A,,Overcast,200,2012-10-03 17:14:00
1:54 PM,68.0,57.2,68,30.01,10.0,South,16.1,20.7,N/A,,Overcast,190,2012-10-03 17:54:00
2:14 PM,68.0,59.0,73,30.00,10.0,South,17.3,-,N/A,,Overcast,180,2012-10-03 18:14:00
2:34 PM,66.2,57.2,73,30.01,10.0,South,11.5,-,N/A,,Overcast,190,2012-10-03 18:34:00
2:54 PM,66.2,57.2,73,30.01,10.0,South,9.2,-,N/A,,Overcast,190,2012-10-03 18:54:00
3:14 PM,66.2,57.2,73,30.01,10.0,South,13.8,-,N/A,,Overcast,190,2012-10-03 19:14:00
3:34 PM,64.4,57.2,77,30.01,10.0,South,10.4,-,N/A,,Overcast,190,2012-10-03 19:34:00
3:54 PM,64.4,57.2,77,30.01,10.0,South,15.0,-,N/A,,Overcast,190,2012-10-03 19:54:00
4:15 PM,64.4,57.2,77,30.02,10.0,South,16.1,-,N/A,,Overcast,190,2012-10-03 20:15:00
4:34 PM,62.6,57.2,82,30.03,10.0,South,13.8,-,N/A,,Overcast,190,2012-10-03 20:34:00
4:54 PM,64.4,57.2,77,30.03,10.0,South,11.5,-,N/A,,Overcast,190,2012-10-03 20:54:00
5:15 PM,64.4,59.0,83,30.03,10.0,South,11.5,-,N/A,,Overcast,180,2012-10-03 21:15:00
5:34 PM,64.4,57.2,77,30.03,10.0,South,10.4,-,N/A,,Overcast,170,2012-10-03 21:34:00
5:54 PM,64.4,57.2,77,30.03,10.0,South,13.8,-,N/A,,Overcast,180,2012-10-03 21:54:00
6:15 PM,64.4,57.2,77,30.04,10.0,South,13.8,-,N/A,,Overcast,170,2012-10-03 22:15:00
6:34 PM,64.4,59.0,83,30.04,10.0,South,12.7,-,N/A,,Overcast,170,2012-10-03 22:34:00
6:54 PM,64.4,59.0,83,30.05,10.0,SSE,8.1,-,N/A,,Overcast,160,2012-10-03 22:54:00
7:14 PM,64.4,59.0,83,30.05,10.0,South,9.2,-,N/A,,Overcast,180,2012-10-03 23:14:00
7:34 PM,64.4,59.0,83,30.05,10.0,South,10.4,-,N/A,,Overcast,170,2012-10-03 23:34:00
7:54 PM,64.4,59.0,83,30.05,10.0,South,9.2,-,N/A,,Mostly Cloudy,170,2012-10-03 23:54:00
8:14 PM,64.4,59.0,83,30.05,10.0,South,12.7,-,N/A,,Overcast,180,2012-10-04 00:14:00
8:34 PM,64.4,59.0,83,30.06,10.0,South,11.5,-,N/A,,Overcast,170,2012-10-04 00:34:00
9:14 PM,64.4,59.0,83,30.06,10.0,South,10.4,-,N/A,,Overcast,180,2012-10-04 01:14:00
9:34 PM,64.4,59.0,83,30.06,10.0,South,10.4,-,N/A,,Overcast,170,2012-10-04 01:34:00
9:55 PM,64.4,59.0,83,30.07,10.0,South,8.1,-,N/A,,Mostly Cloudy,190,2012-10-04 01:55:00
10:34 PM,62.6,57.2,82,30.07,10.0,South,9.2,-,N/A,,Clear,170,2012-10-04 02:34:00
10:55 PM,64.4,59.0,83,30.08,10.0,SSE,9.2,-,N/A,,Mostly Cloudy,160,2012-10-04 02:55:00
11:14 PM,64.4,59.0,83,30.08,10.0,South,11.5,-,N/A,,Mostly Cloudy,170,2012-10-04 03:14:00
11:34 PM,62.6,59.0,88,30.08,10.0,South,11.5,-,N/A,,Scattered Clouds,180,2012-10-04 03:34:00
11:55 PM,62.6,59.0,88,30.08,10.0,South,11.5,-,N/A,,Overcast,180,2012-10-04 03:55:00